Estación de Socoroma INIA
Ultimos registro cada 15 minutos 52
| N° | Estación | Fecha / Hora | Temperatura | Humedad | Lluvia | Velocidad | Dirección | Radiación | Presion |
| 52 | Socoroma INIA | 09-05-2026 12:45 | 17,1 | 12,4 | 0 | 3,5 | 294 | 877 | 700,4 |
| 51 | Socoroma INIA | 09-05-2026 12:30 | 16,4 | 12,6 | 0 | 4,4 | 293 | 878 | 700,4 |
| 50 | Socoroma INIA | 09-05-2026 12:15 | 16 | 12,3 | 0 | 4,8 | 291 | 874 | 700,4 |
| 49 | Socoroma INIA | 09-05-2026 12:00 | 15,6 | 13 | 0 | 4,7 | 294 | 865 | 700,4 |
| 48 | Socoroma INIA | 09-05-2026 11:45 | 15,9 | 12,3 | 0 | 4,4 | 294 | 851 | 700,4 |
| 47 | Socoroma INIA | 09-05-2026 11:30 | 16,2 | 11,8 | 0 | 4 | 296 | 834 | 700,6 |
| 46 | Socoroma INIA | 09-05-2026 11:15 | 16,8 | 10,9 | 0 | 3,2 | 297 | 813 | 700,6 |
| 45 | Socoroma INIA | 09-05-2026 11:00 | 16,8 | 7,4 | 0 | 2,6 | 301 | 788 | 700,7 |
| 44 | Socoroma INIA | 09-05-2026 10:45 | 17,6 | 8,2 | 0 | 1,8 | 299 | 758 | 700,6 |
| 43 | Socoroma INIA | 09-05-2026 10:30 | 18 | 8 | 0 | 0,6 | 317 | 724 | 700,7 |
| 42 | Socoroma INIA | 09-05-2026 10:15 | 17 | 6,7 | 0 | 0,8 | 297 | 685 | 700,7 |
| 41 | Socoroma INIA | 09-05-2026 10:00 | 16,2 | 6,4 | 0 | 0,3 | 336 | 643 | 700,7 |
| 40 | Socoroma INIA | 09-05-2026 09:45 | 15,2 | 7,7 | 0 | 0,4 | 297 | 596 | 700,5 |
| 39 | Socoroma INIA | 09-05-2026 09:30 | 14,3 | 8,1 | 0 | 0,4 | 327 | 547 | 700,6 |
| 38 | Socoroma INIA | 09-05-2026 09:15 | 13,6 | 8,8 | 0 | 0,2 | 339 | 495 | 700,6 |
| 37 | Socoroma INIA | 09-05-2026 09:00 | 13,2 | 7,5 | 0 | 0,1 | 39 | 441 | 700,5 |
| 36 | Socoroma INIA | 09-05-2026 08:45 | 12,4 | 7,4 | 0 | 0 | 52 | 385 | 700,4 |
| 35 | Socoroma INIA | 09-05-2026 08:30 | 11,4 | 9,2 | 0 | 0 | 0 | 327 | 700,3 |
| 34 | Socoroma INIA | 09-05-2026 08:15 | 9,2 | 9,2 | 0 | 0,1 | 90 | 268 | 700,5 |
| 33 | Socoroma INIA | 09-05-2026 08:00 | 7,1 | 10,8 | 0 | 1,7 | 137 | 30 | 700,3 |
| 32 | Socoroma INIA | 09-05-2026 07:45 | 6,1 | 12,1 | 0 | 3,2 | 140 | 14 | 700,3 |
| 31 | Socoroma INIA | 09-05-2026 07:30 | 6,6 | 13,1 | 0 | 3 | 134 | 12 | 700,2 |
| 30 | Socoroma INIA | 09-05-2026 07:15 | 6,5 | 12,8 | 0 | 2,2 | 141 | 9 | 700 |
| 29 | Socoroma INIA | 09-05-2026 07:00 | 6,6 | 13,8 | 0 | 2,4 | 135 | 5 | 699,9 |
| 28 | Socoroma INIA | 09-05-2026 06:45 | 6,7 | 13,9 | 0 | 0,3 | 125 | 1 | 699,8 |
| 27 | Socoroma INIA | 09-05-2026 06:30 | 6,9 | 14,2 | 0 | 0,4 | 126 | 0 | 699,8 |
| 26 | Socoroma INIA | 09-05-2026 06:15 | 7,2 | 13,8 | 0 | 0,9 | 133 | 0 | 699,8 |
| 25 | Socoroma INIA | 09-05-2026 06:00 | 7 | 13,9 | 0 | 1,6 | 148 | 0 | 699,7 |
| 24 | Socoroma INIA | 09-05-2026 05:45 | 7,2 | 14 | 0 | 0,8 | 142 | 0 | 699,6 |
| 23 | Socoroma INIA | 09-05-2026 05:30 | 7,3 | 14,3 | 0 | 0 | 0 | 0 | 699,6 |
| 22 | Socoroma INIA | 09-05-2026 05:15 | 7,5 | 14,5 | 0 | 0 | 0 | 0 | 699,5 |
| 21 | Socoroma INIA | 09-05-2026 05:00 | 7,6 | 14,6 | 0 | 0,2 | 166 | 0 | 699,6 |
| 20 | Socoroma INIA | 09-05-2026 04:45 | 7,4 | 14,5 | 0 | 0 | 0 | 0 | 699,6 |
| 19 | Socoroma INIA | 09-05-2026 04:30 | 7,8 | 15 | 0 | 0 | 0 | 0 | 699,5 |
| 18 | Socoroma INIA | 09-05-2026 04:15 | 7,9 | 14,9 | 0 | 0 | 0 | 0 | 699,5 |
| 17 | Socoroma INIA | 09-05-2026 04:00 | 8 | 14,9 | 0 | 0 | 0 | 0 | 699,6 |
| 16 | Socoroma INIA | 09-05-2026 03:45 | 8,2 | 14,7 | 0 | 0 | 0 | 0 | 699,8 |
| 15 | Socoroma INIA | 09-05-2026 03:30 | 8,2 | 14,2 | 0 | 0 | 0 | 0 | 699,8 |
| 14 | Socoroma INIA | 09-05-2026 03:15 | 8,3 | 14,7 | 0 | 0 | 0 | 0 | 699,8 |
| 13 | Socoroma INIA | 09-05-2026 03:00 | 8,3 | 15 | 0 | 0 | 192 | 0 | 699,8 |
| 12 | Socoroma INIA | 09-05-2026 02:45 | 8,4 | 14,8 | 0 | 0 | 181 | 0 | 699,9 |
| 11 | Socoroma INIA | 09-05-2026 02:30 | 8,5 | 14,7 | 0 | 0 | 0 | 0 | 699,9 |
| 10 | Socoroma INIA | 09-05-2026 02:15 | 8,8 | 14,4 | 0 | 0,1 | 111 | 0 | 700,1 |
| 9 | Socoroma INIA | 09-05-2026 02:00 | 8,7 | 14,6 | 0 | 0,3 | 144 | 0 | 700,2 |
| 8 | Socoroma INIA | 09-05-2026 01:45 | 8,7 | 15 | 0 | 0,4 | 164 | 0 | 700,4 |
| 7 | Socoroma INIA | 09-05-2026 01:30 | 9,1 | 14,8 | 0 | 0 | 0 | 0 | 700,4 |
| 6 | Socoroma INIA | 09-05-2026 01:15 | 8,8 | 14,8 | 0 | 0 | 0 | 0 | 700,4 |
| 5 | Socoroma INIA | 09-05-2026 01:00 | 8,8 | 15,5 | 0 | 0 | 0 | 0 | 700,6 |
| 4 | Socoroma INIA | 09-05-2026 00:45 | 9,3 | 14,4 | 0 | 1 | 112 | 0 | 700,7 |
| 3 | Socoroma INIA | 09-05-2026 00:30 | 9,3 | 14,3 | 0 | 1,3 | 124 | 0 | 700,8 |
| 2 | Socoroma INIA | 09-05-2026 00:15 | 9,6 | 13,1 | 0 | 0,3 | 165 | 0 | 700,8 |
| 1 | Socoroma INIA | 09-05-2026 00:00 | 9,7 | 13,5 | 0 | 1,2 | 116 | 0 | 700,8 |